Ulaanbaatar,

8:07 PM +08 on August 17, 2017 (GMT +0800)
Ulaanbaatar

Weather History for ZMUB - March, 2013

Change the Weather History Date:

Tuesday, March 19, 2013

  Actual Average Record
Temperature  
Mean Temperature 7 °F -  
Max Temperature 14 °F 40 °F - ()
Min Temperature -2 °F 15 °F - ()
Degree Days  
Heating Degree Days 58    
Moisture  
Dew Point -11 °F    
Average Humidity 44    
Maximum Humidity 72    
Minimum Humidity 15    
Precipitation  
Precipitation 0.06 in 0.01 in - ()
Sea Level Pressure  
Sea Level Pressure 29.99 in    
Wind  
Wind Speed 8 mph ()    
Max Wind Speed 16 mph    
Max Gust Speed -    
Visibility 6.2 miles    
Events      
T = Trace of Precipitation, MM = Missing Value Source: Averaged Metar Reports

Daily Weather History Graph

Daily Weather History Graph

Search for Another Location

Airport or City:

Trip Planner

Search our weather history database for the weather conditions in past years. The results will help you decide how hot, cold, wet, or windy it might be!

Date:

Astronomy

Mar. 19, 2013 Rise Set
Actual Time 6:58 AM +08 7:03 PM +08
Civil Twilight 6:27 AM +08 7:34 PM +08
Nautical Twilight 5:51 AM +08 8:11 PM +08
Astronomical Twilight 5:14 AM +08 8:48 PM +08
Moon 10:55 AM +08 (3/19) 1:49 AM +08 (3/19)
Length of Visible Light 13h 07m
Length of Day
12h 05m
Waxing Crescent, 45% of the Moon is Illuminated
Mar 19
Waxing Crescent
Mar 20
First Quarter
Mar 27
Full
Apr 3
Last Quarter
Apr 10
New

Hourly Weather History & Observations

Time (+08) Temp. Windchill Dew Point Humidity Pressure Visibility Wind Dir Wind Speed Gust Speed Precip Events Conditions
12:00 AM 8.6 °F -4.4 °F -7.6 °F 48% 29.71 in 6.2 mi North 8.9 mph - N/A   Mostly Cloudy
12:30 AM 8.6 °F -4.4 °F -7.6 °F 48% 29.71 in 6.2 mi NNW 8.9 mph - N/A   Mostly Cloudy
1:00 AM 6.8 °F -6.7 °F -7.6 °F 52% 29.74 in 6.2 mi NNW 8.9 mph - N/A   Mostly Cloudy
2:00 AM 7 °F - -8 °F 34% 30.14 in - NW 4.5 mph - -   Mostly Cloudy
2:00 AM 6.8 °F -6.7 °F -7.6 °F 52% 29.74 in 6.2 mi NNW 8.9 mph - N/A   Mostly Cloudy
3:00 AM 6.8 °F -8.4 °F -7.6 °F 52% 29.77 in 6.2 mi NNW 11.2 mph - N/A   Mostly Cloudy
4:00 AM 5.0 °F -8.9 °F -5.8 °F 61% 29.77 in 6.2 mi NNW 8.9 mph - N/A   Mostly Cloudy
5:00 AM 5 °F - -10 °F 35% 30.19 in - NNE 4.5 mph - -   Clear
5:00 AM 5.0 °F -8.9 °F -7.6 °F 56% 29.80 in 6.2 mi NNW 8.9 mph - N/A   Mostly Cloudy
5:30 AM 5.0 °F -8.9 °F -7.6 °F 56% 29.80 in 6.2 mi NNW 8.9 mph - N/A   Mostly Cloudy
6:00 AM 5.0 °F -8.9 °F -7.6 °F 56% 29.80 in 6.2 mi NNW 8.9 mph - N/A   Mostly Cloudy
6:30 AM 3.2 °F -11.1 °F -7.6 °F 61% 29.83 in 6.2 mi NNW 8.9 mph - N/A   Scattered Clouds
7:00 AM 3.2 °F -8.9 °F -7.6 °F 61% 29.86 in 6.2 mi NNW 6.7 mph - N/A   Scattered Clouds
7:30 AM 1.4 °F -13.3 °F -7.6 °F 66% 29.86 in 6.2 mi NNW 8.9 mph - N/A   Scattered Clouds
8:00 AM 2 °F - -9 °F 44% 30.34 in 31 mi NW 4.5 mph - -   Clear
8:00 AM 1.4 °F -13.3 °F -7.6 °F 66% 29.89 in 6.2 mi NNW 8.9 mph - N/A   Scattered Clouds
8:30 AM 3.2 °F -12.9 °F -9.4 °F 56% 29.92 in 6.2 mi NNW 11.2 mph - N/A   Scattered Clouds
9:00 AM 3.2 °F -11.1 °F -9.4 °F 56% 29.92 in 6.2 mi NW 8.9 mph - N/A   Mostly Cloudy
9:30 AM 3.2 °F -8.9 °F -11.2 °F 51% 29.92 in 6.2 mi NW 6.7 mph - N/A   Mostly Cloudy
10:00 AM 5.0 °F -8.9 °F -11.2 °F 47% 29.95 in 6.2 mi NW 8.9 mph - N/A   Mostly Cloudy
10:30 AM 6.8 °F -9.8 °F -13.0 °F 40% 29.95 in 6.2 mi NNW 13.4 mph - N/A   Mostly Cloudy
11:00 AM 8 °F - -11 °F 25% 30.36 in 31 mi NW 8.9 mph - -   Scattered Clouds
11:00 AM 6.8 °F -6.7 °F -13.0 °F 40% 29.95 in 6.2 mi NNW 8.9 mph - N/A   Partly Cloudy
11:30 AM 6.8 °F -8.4 °F -13.0 °F 40% 29.98 in 6.2 mi NW 11.2 mph - N/A   Partly Cloudy
12:00 PM 8.6 °F -7.5 °F -11.2 °F 40% 29.98 in 6.2 mi NW 13.4 mph - N/A   Partly Cloudy
12:30 PM 8.6 °F -7.5 °F -13.0 °F 37% 29.98 in 6.2 mi NW 13.4 mph - N/A   Partly Cloudy
1:00 PM 10.4 °F -5.2 °F -11.2 °F 37% 29.98 in 6.2 mi NNW 13.4 mph - N/A   Partly Cloudy
1:30 PM 10.4 °F -5.2 °F -14.8 °F 31% 29.98 in 6.2 mi North 13.4 mph - N/A   Partly Cloudy
2:00 PM 10 °F - -12 °F 20% 30.36 in 31 mi NW 8.9 mph - -   Scattered Clouds
2:00 PM 10.4 °F -3.9 °F -13.0 °F 34% 29.98 in 6.2 mi North 11.2 mph - N/A   Partly Cloudy
2:30 PM 10.4 °F -3.9 °F -13.0 °F 34% 29.98 in 6.2 mi NNW 11.2 mph - N/A   Partly Cloudy
3:00 PM 10.4 °F -2.2 °F -11.2 °F 37% 29.98 in 6.2 mi NNW 8.9 mph - N/A   Partly Cloudy
3:30 PM 12.2 °F -2.9 °F -13.0 °F 32% 29.98 in 6.2 mi NNW 13.4 mph - N/A   Partly Cloudy
4:00 PM 12.2 °F -2.9 °F -13.0 °F 32% 30.01 in 6.2 mi NW 13.4 mph - N/A   Partly Cloudy
4:30 PM 12.2 °F -4.1 °F -14.8 °F 29% 30.01 in 6.2 mi NW 15.7 mph - N/A   Partly Cloudy
5:00 PM 12 °F - -13 °F 16% 30.35 in 31 mi NW 8.9 mph - -   Scattered Clouds
5:00 PM 14.0 °F -0.6 °F -11.2 °F 32% 30.01 in 6.2 mi NW 13.4 mph - N/A   Partly Cloudy
5:30 PM 12.2 °F -2.9 °F -13.0 °F 32% 29.98 in - NW 13.4 mph - N/A   Clear
6:00 PM 12.2 °F -2.9 °F -11.2 °F 34% 29.98 in - NW 13.4 mph - N/A   Clear
6:30 PM 12.2 °F -0.0 °F -13.0 °F 32% 30.01 in - North 8.9 mph - N/A   Clear
7:00 PM 10.4 °F -2.2 °F -13.0 °F 34% 30.01 in - NNW 8.9 mph - N/A   Clear
7:30 PM 8.6 °F -2.4 °F -11.2 °F 40% 30.01 in - North 6.7 mph - N/A   Clear
8:00 PM 8 °F - -17 °F 15% 30.40 in 31 mi NW 4.5 mph - -  
8:00 PM 8.6 °F 0.3 °F -11.2 °F 40% 30.01 in - North 4.5 mph - N/A   Clear
8:30 PM 8.6 °F 0.3 °F -13.0 °F 37% 30.01 in - NNE 4.5 mph - N/A   Clear
9:00 PM 6.8 °F - -11.2 °F 44% 30.01 in - Variable 2.2 mph - N/A   Clear
9:30 PM 5.0 °F - -9.4 °F 52% 30.01 in - Variable 2.2 mph - N/A   Clear
10:00 PM -0.4 °F - -7.6 °F 72% 30.01 in - Variable 2.2 mph - N/A   Clear
10:30 PM -0.4 °F - -7.6 °F 72% 30.01 in - Variable 2.2 mph - N/A   Clear
11:00 PM 4 °F - -17 °F 20% 30.40 in - Calm Calm - -   Smoke
11:00 PM -0.4 °F - -9.4 °F 66% 30.01 in - Variable 2.2 mph - N/A   Clear
11:30 PM -2.2 °F - -9.4 °F 71% 30.01 in - Variable 2.2 mph - N/A   Clear